Weather History for Buffalo, SD

Change the Weather History Date:

Sunday, November 3, 2013

  Actual Average Record
Temperature  
Mean Temperature 40 °F 38 °F  
Max Temperature 50 °F 49 °F 64 °F (2001)
Min Temperature 29 °F 27 °F 15 °F (2003)
Degree Days  
Heating Degree Days 25 27  
Month to date heating degree days 71 79  
Since 1 July heating degree days 901 980  
Cooling Degree Days 0 0  
Month to date cooling degree days 0 0  
Year to date cooling degree days 587 513  
Moisture  
Dew Point 27 °F    
Average Humidity 60    
Maximum Humidity 82    
Minimum Humidity 38    
Precipitation  
Precipitation 0.00 in 0.02 in 0.06 in (2003)
Month to date precipitation 0.00 0.07  
Year to date precipitation 12.15 13.99  
Sea Level Pressure  
Sea Level Pressure 29.58 in    
Wind  
Wind Speed 14 mph (WNW)    
Max Wind Speed 30 mph    
Max Gust Speed 36 mph    
T = Trace of Precipitation, MM = Missing Value Source: NWS Daily Summary

Daily Weather History Graph

Daily Weather History Graph

Search for Another Location

Airport:

Trip Planner

Search our weather history database for the weather conditions in past years. The results will help you decide how hot, cold, wet, or windy it might be!

Date:

Astronomy

Nov. 03, 2013 Rise Set
Actual Time 6:37 AM MST 4:37 PM MST
Civil Twilight 6:05 AM MST 5:08 PM MST
Nautical Twilight 5:30 AM MST 5:44 PM MST
Astronomical Twilight 4:56 AM MST 6:18 PM MST
Moon 6:44 AM MST (11/3) 4:52 PM MST (11/3)
Length of Visible Light 11h 02m
Length of Day
10h 00m
New Moon, 0% of the Moon is Illuminated
Nov 3
New Moon
Nov 9
First Quarter
Nov 17
Full
Nov 25
Last Quarter
Dec 2
New

Hourly Weather History & Observations

Time (MST) Temp. Windchill Dew Point Humidity Pressure Visibility Wind Dir Wind Speed Gust Speed Precip Events Conditions
12:56 AM 37.9 °F 32.1 °F 28.0 °F 68% 29.50 in - South 8.1 mph - N/A   Unknown
1:56 AM 37.9 °F - 28.0 °F 68% 29.49 in - Calm Calm - N/A   Unknown
1:56 AM 37.9 °F 35.5 °F 28.0 °F 68% 29.47 in - SSE 3.5 mph - N/A   Unknown
2:56 AM 37.0 °F - 28.0 °F 70% 29.45 in - Calm Calm - N/A   Unknown
3:56 AM 34.0 °F 29.8 °F 28.0 °F 79% 29.46 in - NNE 4.6 mph - N/A   Unknown
4:56 AM 34.0 °F 26.6 °F 28.0 °F 79% 29.49 in - West 9.2 mph - N/A   Unknown
5:56 AM 36.0 °F 27.5 °F 28.0 °F 73% 29.50 in - WNW 12.7 mph - N/A   Unknown
6:56 AM 39.9 °F 29.0 °F 30.9 °F 70% 29.49 in - NW 26.5 mph - N/A   Unknown
7:56 AM 41.0 °F 30.7 °F 33.1 °F 73% 29.51 in - NW 25.3 mph 33.4 mph N/A   Unknown
8:56 AM 42.1 °F 33.6 °F 34.0 °F 73% 29.52 in - NW 18.4 mph 28.8 mph N/A   Unknown
9:56 AM 46.0 °F 39.9 °F 36.0 °F 68% 29.54 in - WNW 13.8 mph - N/A   Unknown
10:56 AM 48.9 °F - 34.0 °F 56% 29.54 in - NW 21.9 mph 27.6 mph N/A   Unknown
11:56 AM 48.9 °F - 30.9 °F 50% 29.55 in - NW 25.3 mph 32.2 mph N/A   Unknown
12:56 PM 48.0 °F - 28.9 °F 48% 29.57 in - NW 24.2 mph - N/A   Unknown
1:56 PM 48.9 °F - 24.1 °F 38% 29.58 in - WNW 27.6 mph 33.4 mph N/A   Unknown
2:56 PM 46.9 °F - 23.0 °F 39% 29.63 in - WNW 18.4 mph - N/A   Unknown
3:56 PM 46.0 °F 40.6 °F 23.0 °F 40% 29.64 in - WNW 11.5 mph - N/A   Unknown
4:56 PM 42.1 °F 35.7 °F 23.0 °F 47% 29.67 in - WNW 11.5 mph - N/A   Unknown
5:56 PM 41.0 °F 35.2 °F 23.0 °F 49% 29.69 in - WNW 9.2 mph - N/A   Unknown
6:56 PM 36.0 °F 27.5 °F 23.0 °F 59% 29.70 in - WNW 12.7 mph - N/A   Unknown
7:56 PM 35.1 °F 25.5 °F 21.9 °F 59% 29.69 in - NW 15.0 mph - N/A   Unknown
8:56 PM 36.0 °F 27.1 °F 21.9 °F 57% 29.74 in - NW 13.8 mph - N/A   Unknown
9:56 PM 34.0 °F 24.2 °F 21.9 °F 61% 29.74 in - WNW 15.0 mph - N/A   Unknown
10:56 PM 28.9 °F 20.4 °F 21.9 °F 75% 29.76 in - West 9.2 mph - N/A   Unknown